Regional Weather Roundup
Issued by NWS

Home | Current Version | Previous Version | Text Only | Print | Product List | Glossary Off
Versions: 1 2 3 4 5 6 7 8 9 10 11 12 13 14 15 16 17 18 19 20 21 22 23 24 25 26 27 28 29 30 31 32 33 34 35 36 37 38 39 40 41 42 43 44 45 46 47 48 49 50

000
ASUS43 KMKX 220711
RWRWI

WISCONSIN REGIONAL WEATHER ROUNDUP
NATIONAL WEATHER SERVICE MILWAUKEE/SULLIVAN WI
100 AM CST MON DEC 22 2014

NOTE: "FAIR" INDICATES FEW OR NO CLOUDS BELOW 12,000 FEET WITH NO
SIGNIFICANT WEATHER AND/OR OBSTRUCTIONS TO VISIBILITY.

WIZ001-002-006>008-014>016-023>028-220800-
NORTHWEST WISCONSIN

CITY           SKY/WX    TMP DP  RH WIND       PRES   REMARKS
SUPERIOR ARPT  CLOUDY    35  34  96 S5        29.74S WCI  31
ASHLAND        CLOUDY    36  33  89 S5        29.78S WCI  32
HAYWARD        LGT SNOW  34  32  92 S8        29.76S FOG     WCI  27
SIREN          LGT RAIN  34  33  98 SE9       29.73F WCI  26
CUMBERLAND     LGT SNOW  32  32 100 SE7       29.74F WCI  26
RICE LAKE      LGT SNOW  33  32  97 SE7       29.78S WCI  27
CHETEK         LGT RAIN  35  34  97 SE10      29.77F WCI  27
LADYSMITH      CLOUDY    35  35  98 SE8       29.81S FOG     WCI  29
EAU CLAIRE     CLOUDY    36  33  89 S14       29.79F WCI  27
MENOMONIE      LGT RAIN  37  36  96 SE13      29.78S WCI  29
NEW RICHMOND   CLOUDY    36  36 100 S10       29.74S WCI  28
OSCEOLA        CLOUDY    37  37 100 SE8       29.76S WCI  30
$$

WIZ003>005-009-010-017-018-220800-
NORTH CENTRAL WISCONSIN

CITY           SKY/WX    TMP DP  RH WIND       PRES   REMARKS
MANITOWISH WTR LGT SNOW  32  32 100 S9        29.80S WCI  24
ARBOR VITAE    MIX PCPN  34  32  93 S10       29.81F WCI  26
WOODRUFF       MIX PCPN  34  32  93 S10       29.81F WCI  26
RHINELANDER    CLOUDY    32  30  92 S8        29.84S WCI  25
EAGLE RIVER    LGT SNOW  32  32 100 S7        29.83S WCI  26
LAND O LAKES   LGT SNOW  33  32  96 S8        29.83S WCI  26
PHILLIPS       DRIZZLE   33  32  99 S10G17    29.80S WCI  24
TOMAHAWK       DRIZZLE   32  31  98 S5        29.84S WCI  27
MEDFORD        CLOUDY    32  32  99 S12       29.82F FOG     WCI  23
MERRILL        CLOUDY    33  33 100 S7        29.85F FOG     WCI  27
$$

WIZ029-030-035-036-043>047-220800-
CENTRAL WISCONSIN

CITY           SKY/WX    TMP DP  RH WIND       PRES   REMARKS
WAUSAU         CLOUDY    33  31  92 S13       29.86S FOG     WCI  24
MOSINEE        CLOUDY    32  32 100 SE10G16   29.87S FOG     WCI  24
MARSHFIELD     CLOUDY    34  32  92 S13       29.84F FOG     WCI  25
STEVENS POINT  LGT SNOW  32  30  92 S8        29.89S WCI  25
WAUPACA        CLOUDY    37  31  81 S8        29.93S WCI  30
WAUTOMA        CLOUDY    35  32  89 S10G16    29.92F WCI  27
WISC RAPIDS    LGT SNOW  34  30  85 S9        29.89S FOG     WCI  27
CAMP DOUGLAS   CLOUDY    35  35 100 SE9       29.87S WCI  28
$$

WIZ011>013-019>022-031-037>040-048>050-220800-
NORTHEAST WISCONSIN

CITY           SKY/WX    TMP DP  RH WIND       PRES   REMARKS
ANTIGO         CLOUDY    31  31  99 S10       29.87S FOG     WCI  23
SHAWANO        CLOUDY    37  31  81 S7        29.93F WCI  31
OCONTO         CLOUDY    35  32  87 S8G17     29.95S WCI  29
STURGEON BAY   CLOUDY    36  30  80 S13G18    29.98S WCI  27
GREEN BAY      CLOUDY    36  30  79 S13       29.95F WCI  27
MANITOWOC      CLOUDY    37  32  82 S12       29.98F WCI  29
APPLETON       CLOUDY    34  30  86 S13G18    29.93F WCI  25
CLINTONVILLE   CLOUDY    34  30  86 S12G17    29.93S WCI  25
OSHKOSH        CLOUDY    35  29  78 S12       29.94F WCI  27
$$

WIZ032>034-041-042-053>061-220800-
SOUTHWEST WISCONSIN

CITY           SKY/WX    TMP DP  RH WIND       PRES   REMARKS
LA CROSSE      CLOUDY    38  34  85 SE10      29.83F WCI  31
SPARTA         CLOUDY    36  32  87 S13       29.85F WCI  27
VIROQUA        CLOUDY    33  33 100 S13       29.83F WCI  24
BOSCOBEL       CLOUDY    37  31  78 S9        29.88F WCI  30
PRAIRIE DU CHI CLOUDY    36  31  83 SE6       29.85F WCI  31
PLATTEVILLE    CLOUDY    34  32  92 SE14      29.88F WCI  25
$$

WIZ056-057-062-063-064-067-068-220800-
SOUTH CENTRAL WISCONSIN

CITY           SKY/WX    TMP DP  RH WIND       PRES   REMARKS
REEDSBURG      FLURRIES  34  31  90 S7        29.89S WCI  28
BARABOO/DELLS  CLOUDY    34  30  85 S9G17     29.89F WCI  27
LONE ROCK      CLOUDY    39  30  70 SE8       29.90F WCI  33
MINERAL POINT  CLOUDY    34  32  93 SE13      29.87F FOG     WCI  25
MADISON        CLOUDY    35  29  78 S13       29.92F WCI  26
MIDDLETON      CLOUDY    36  31  82 S9        29.91F WCI  29
WATERTOWN      CLOUDY    34  31  90 SE5       29.94F WCI  30
MONROE         CLOUDY    34  32  93 S10       29.90F WCI  26
JANESVILLE     CLOUDY    36  30  80 SE13      29.94F WCI  27
$$

WIZ051-052-058>065-066-070>072-220800-
SOUTHEAST WISCONSIN

CITY           SKY/WX    TMP DP  RH WIND       PRES   REMARKS
MILWAUKEE      CLOUDY    34  28  79 S9        29.99F WCI  27
WAUKESHA       CLOUDY    32  28  86 SE9       29.97F WCI  24
MILWAUKEE/TIMM CLOUDY    34  28  80 S8        29.99F WCI  27
RACINE         CLOUDY    34  28  79 S14       30.00F WCI  25
BURLINGTON     CLOUDY    32  28  84 SE8       29.97F WCI  25
KENOSHA        CLOUDY    33  28  81 S9        29.98F HAZE    WCI  25
FOND DU LAC    CLOUDY    35  29  78 S10       29.95F WCI  27
SHEBOYGAN      CLOUDY    36  31  82 S16G23    29.98F WCI  26
WEST BEND      CLOUDY    34  30  86 SE8       29.96F WCI  27
JUNEAU         CLOUDY    34  30  86 SE13G18   29.95F WCI  25
$$

LSZ147-162-220800-
LAKE SUPERIOR

STATION/POSITION TIME  TEMP    WIND        PRES    WAVE
                       AIR SEA DIR/SP/G            HT/PER
                 (UTC) (F)     (DEG/KT/KT) (MB)    (FT/S)
DEVILS ISLAND    0700   36     150/  9/ 13 1009.0F
PORT WING        0640   37     160/  3/  6 1008.1S
SAXON HARBOR     0600   38     180/  2/  8 1008.5F
$$

LMZ867-665-643>646-220800-
LAKE MICHIGAN

STATION/POSITION TIME  TEMP    WIND        PRES    WAVE
                       AIR SEA DIR/SP/G            HT/PER
                 (UTC) (F)     (DEG/KT/KT) (MB)    (FT/S)
CHAMBERS ISLAND  0600   37     150/  8/ 16 1014.9F
NORTHPORT PIER   0600   36     160/ 11/ 20 1015.2F
SISTER BAY       0613          180/ 17/ 25   N/A
ALGOMA LAKESHORE 0615          220/ 22/ 26   N/A
KEWAUNEE LAKESHO 0600   37     180/ 16/ 20 1014.5F
SHEBOYGAN LAKESH 0700   37 36  180/ 26/ 29 1015.7F
PORT WASHINGTON  0600   37     180/ 16/ 20 1016.6F
MILWAUKEE LAKESH 0600   36     180/ 14/ 18   N/A
KENOSHA   LAKESH 0700   35     170/ 18/ 21 1015.2F
$$

TC  - TEMPERATURE IN CELSIUS
VSB - VISIBILITY IN STATUTE MILES
WCI - WIND CHILL INDEX
HX  - HEAT INDEX




USA.gov is the U.S. government's official web portal to all federal, state and local government web resources and services.